{"data":{"norad_id":69768,"intl_designator":"2026-151F","name":"KUIPER-00598","alt_names":[],"object_type":"PAYLOAD","status":"ACTIVE","operator":null,"country":"US","launch_date":"2026-07-02","launch_site_code":"AFETR","launch_vehicle":null,"mission":null,"orbit_class":"UNKNOWN","rcs_meters":null,"size_class":null,"mass_kg":null,"dimensions":null,"purposes":[],"wikipedia_slug":null,"has_3d_model":false,"image_url":null,"decayed_at":null,"tle_current":{"epoch":"2026-09-20T04:58:02.302176Z","epoch_age_seconds":50793,"freshness":"FRESH","line1":"1 69768U 26151F   26263.20697109 -.00003947  00000+0 -48888-3 0  9997","line2":"2 69768  51.8970 227.9926 0000738  97.9639 262.1407 14.79940351 12161","mean_motion":14.79940351,"eccentricity":7.38e-5,"inclination_deg":51.897,"raan_deg":227.9926,"arg_perigee_deg":97.9639,"mean_anomaly_deg":262.1407,"bstar":-0.00048888,"rev_number":1216,"period_min":97.301218865138,"perigee_km":628.99525945814,"apogee_km":630.02958851312,"semimajor_km":7007.6494239856,"source":"CELESTRAK","updated_at":"2026-09-20T09:00:25.088984Z"}}}